Regional Weather Roundup
Issued by NWS

Home | Current Version | Previous Version | Text Only | Print | Product List | Glossary Off
Versions: 1 2 3 4 5 6 7 8 9 10 11 12 13 14 15 16 17 18 19 20 21 22 23 24 25 26 27

000
ASUS45 KSLC 190410
RWRUT

UTAH REGIONAL WEATHER ROUNDUP
NATIONAL WEATHER SERVICE SALT LAKE CITY UT
1000 PM MDT MON SEP 18 2017

UTZ001>011-023>025-190500-

NORTHERN UTAH

CITY           SKY/WX    TMP DP  RH WIND       PRES   REMARKS
BRIGHAM CITY   CLOUDY    62  43  51 SE9G18    29.79R
HILL AFB       CLOUDY    59  46  63 N16G33    29.78R
LOGAN          LGT RAIN  54  49  83 NE17      29.82R
OGDEN          LGT RAIN  59  48  67 N23G29    29.75R
SALT LAKE CITY CLOUDY    74  43  32 W9G25     29.71R
TOOELE VALLEY  CLOUDY    73  39  29 W15G23    29.73R
WENDOVER       CLOUDY    71  30  21 NW13      29.71S
HEBER CITY     CLOUDY    68  28  22 SW7       29.79F
WEST JORDAN    CLOUDY    74  46  36 S21G33    29.73F

$$

UTZ011>015-024>027-190500-

CENTRAL/NORTHEAST UTAH

CITY           SKY/WX    TMP DP  RH WIND       PRES   REMARKS
PROVO AIRPORT  CLOUDY    73  35  25 SE15G25   29.76F
MOAB/CANYONLAN CLEAR     75  24  15 SW10G24   29.83F
DELTA          CLOUDY    68  34  28 S21G30    29.82F
PRICE          CLEAR     62  30  29 E9        29.89S
ROOSEVELT      CLOUDY    59  39  47 W7        29.84F
VERNAL         CLOUDY    66  33  29 S10       29.82F

$$

UTZ013>016-019>022-027-190500-

SOUTHERN UTAH

CITY           SKY/WX    TMP DP  RH WIND       PRES   REMARKS
BRYCE CANYON   CLEAR     55  31  39 SE7       30.09F
CEDAR CITY     CLEAR     67  32  27 S18G26    29.94F
MILFORD        MOCLDY    66  39  37 SE9       29.89R
ST GEORGE      CLOUDY    79  37  22 S13       29.84S
HANKSVILLE     CLEAR     72  28  20 S6        29.86F
BLANDING         N/A     58  21  23 CALM      30.09S

$$

REGIONAL REPORTS     COLORADO/ARIZONA

CITY           SKY/WX    TMP DP  RH WIND       PRES   REMARKS
CRAIG, CO      CLOUDY    55  35  47 VRB3      29.92F
GRAND JUNCTION CLOUDY    62  32  32 SE7       29.89F
RIFLE, CO      CLOUDY    69  24  18 S10       29.94S
MONTROSE, CO   CLOUDY    63  27  25 S12       30.02F
CORTEZ, CO     CLEAR     52  33  48 E5        30.05S
PAGE, AZ       CLEAR     79  23  12 SW10G18   29.91R
GRAND CANYON   CLEAR     56  22  26 SW8       30.14S
KINGMAN, AZ    CLEAR     70  39  32 S13       29.94F
FLAGSTAFF, AZ  CLEAR     54  22  28 W5        30.19R

$$

REGIONAL REPORTS    NEVADA/IDAHO/WYOMING

CITY           SKY/WX    TMP DP  RH WIND       PRES   REMARKS
LAS VEGAS, NV  CLEAR     85  40  20 S9G18     29.76S
ELY, NY        CLOUDY    66  31  27 S20G26    29.86S
ELKO, NV       CLOUDY    65  30  27 W18       29.78S
POCATELLO, ID  CLOUDY    61  39  44 S14G30    29.70F
BURLEY, ID     CLOUDY    57  39  51 W8        29.71R
FORT BRIDGER,  MOCLDY    61  30  30 SW14      29.86F
EVANSTON, WY   LGT RAIN  61  34  36 W36G47    29.86R
ROCK SPRINGS,  CLEAR     60  29  30 S18G28    29.85S
KEMMERER, WY     N/A     50  43  76 W17G28    29.89S

$$




USA.gov is the U.S. government's official web portal to all federal, state and local government web resources and services.